Location: 476 Grange Obs.
(45.1420°N, 7.1420°E)
Time: 02:45:52
(UTC+02:00)

ISS - Visible Passes

Search period start: 23 October 2017 00:00
Search period end: 01 November 2017 23:00
Orbit: 401 x 408 km, 51.6° (Epoch: 23 October)

Date Brightness Start Highest point End Pass type
(mag) Time Alt. Az. Time Alt. Az. Time Alt. Az.
28 Oct -0.4 07:04:33 10° SE 07:05:22 11° SE 07:06:11 10° ESE visible
30 Oct -1.5 05:54:04 10° SSW 05:56:43 23° SE 05:59:23 10° E visible
31 Oct -0.9 05:02:53 10° SSE 05:04:31 13° SE 05:06:08 10° ESE visible
01 Nov -3.1 05:45:52 17° SW 05:48:08 50° SE 05:51:19 10° ENE visible
